Weather Roundup
Issued by NWS

Home | Current Version | Previous Version | Graphics & Text | Print | Product List | Glossary Off
Versions: 1 2 3 4 5 6 7 8 9 10 11 12 13 14 15 16 17 18 19 20 21 22 23 24 25 26 27 28 29 30 31 32 33 34 35 36 37 38 39 40 41 42 43 44 45 46 47 48 49 50

000
NZUS93 KARX 291310
HRRWXR

CURRENT HOURLY OBSERVATIONS ACROSS
MUCH OF THE UPPER MISSISSIPPI VALLEY
NATIONAL WEATHER SERVICE LA CROSSE WI
800 AM CDT FRI APR 29 2016


...SOUTHEAST MINNESOTA...


CITY           SKY/WX    TMP DP  RH WIND       PRES   REMARKS
ROCHESTER      CLOUDY    39  38  96 N9        30.17R WCI  33
ROCHESTER/MAYO CLOUDY    38  38 100 N7        30.17R WCI  33
WINONA         CLOUDY    41  37  87 N3        30.17S
AUSTIN         PTSUNNY   37  36  93 N7        30.15F WCI  32
ALBERT LEA     CLOUDY    39  37  93 N7        30.15F WCI  34
DODGE CENTER   CLOUDY    37  37 100 N5        30.16S FOG     WCI  34
PRESTON        CLOUDY    37  34  90 N5        30.15R WCI  33
OWATONNA       CLOUDY    36  34  93 N6        30.17S FOG     WCI  31
FARIBAULT      SUNNY     36  36 100 VRB2      30.19R
$$

...ELSEWHERE IN MINNESOTA...


CITY           SKY/WX    TMP DP  RH WIND       PRES   REMARKS
MINNEAPOLIS    CLOUDY    40  38  93 W3        30.20R FOG
INTNL FALLS    SUNNY     41  32  70 NE8       30.21S
DULUTH         MOSUNNY   40  27  59 VRB3      30.18R
RED WING       CLOUDY    37  37 100 W3        30.19R FOG
REDWOOD FALLS  MOSUNNY   40  36  86 E5        30.18F
MANKATO        CLOUDY    37  34  87 N8        30.18F WCI  31
WORTHINGTON    CLOUDY    38  35  89 NE9       30.15F WCI  31
FAIRMONT       CLOUDY    39  28  65 N9        30.16R WCI  33
$$

...SOUTHWEST WISCONSIN...


CITY           SKY/WX    TMP DP  RH WIND       PRES   REMARKS
LA CROSSE      CLOUDY    42  37  82 N8        30.14F
PRAIRIE DU CHI CLOUDY    41  36  80 NE7       30.12F
BOSCOBEL       CLOUDY    42  38  85 NE6       30.12F
LONE ROCK      CLOUDY    41  37  86 NW3       30.14S
PLATTEVILLE    CLOUDY    41  40  95 N8        30.11S
FORT MC COY    CLOUDY    40  38  95 N5        30.14F
CAMP DOUGLAS   PTSUNNY   39  39 100 NW7       30.13S WCI  34
MAUSTON-NEW LI CLOUDY    40  38  93 N5        30.13S
VIROQUA        CLOUDY    38  38  97 N7        30.12S WCI  33
WIS DELLS      CLOUDY    39  37  92 N8        30.12S WCI  33
$$

...ELSEWHERE IN WISCONSIN...


CITY           SKY/WX    TMP DP  RH WIND       PRES   REMARKS
MILWAUKEE      CLOUDY    41  37  86 N9        30.10R
MADISON        PTSUNNY   40  37  89 N5        30.12R
GREEN BAY      CLOUDY    43  34  70 N9        30.14R
EAU CLAIRE     MOSUNNY   43  39  86 N7        30.15R
BLACK RVR FLS  CLOUDY    40  39  99 CALM      30.16R
MEDFORD        CLOUDY    38  38  98 CALM      30.13S
WAUSAU         CLOUDY    42  36  79 N3        30.13R
WIS RAPIDS     CLOUDY    41  35  79 NE8       30.15R
MARSHFIELD     CLOUDY    41  36  82 NE6       30.13R
RICE LAKE      SUNNY     37  29  75 N5        30.18R WCI  33
$$

...NORTHEAST IOWA...


CITY           SKY/WX    TMP DP  RH WIND       PRES   REMARKS
WATERLOO       CLOUDY    42  38  85 N10       30.11F
DUBUQUE        CLOUDY    41  39  93 N12       30.09F
DECORAH        CLOUDY    39  37  93 NE9       30.12S WCI  33
MASON CITY     CLOUDY    40  38  93 N10       30.15R WCI  33
CHARLES CITY   MOSUNNY   41  39  93 NE9       30.14R
OELWEIN        CLOUDY    41  39  93 NE9       30.12F
$$

...ELSEWHERE IN IOWA...


CITY           SKY/WX    TMP DP  RH WIND       PRES   REMARKS
DES MOINES     CLOUDY    47  42  83 N14       30.06F
IOWA CITY      CLOUDY    45  41  86 N8        30.10R
FORT DODGE     CLOUDY    41  36  81 N9        30.12F
MARSHALLTOWN   CLOUDY    44  41  89 N12       30.09R
CEDAR RAPIDS   PTSUNNY   44  41  89 N14       30.07F
$$

...NORTHERN ILLINOIS...


CITY           SKY/WX    TMP DP  RH WIND       PRES   REMARKS
CHICAGO-OHARE  CLOUDY    42  40  92 N9        30.08S FOG
CHICAGO-MIDWAY CLOUDY    44  40  85 N9        30.07F FOG
MOLINE         CLOUDY    46  40  79 N5        30.07S
ROCKFORD       CLOUDY    43  39  86 N12       30.11F
PEORIA         CLOUDY    48  43  82 N10G18    30.05F HAZE
$$

NOTE: "FAIR" INDICATES FEW OR NO CLOUDS BELOW 12,000 FEET WITH NO
SIGNIFICANT WEATHER AND/OR OBSTRUCTIONS TO VISIBILITY. WIND
SPEEDS ARE IN MILES-PER-HOUR.




USA.gov is the U.S. government's official web portal to all federal, state and local government web resources and services.